CAPE
0 0 0 0 0 0 0 0 0 0 0 0 0 1 30 0 0 0 0 0 0 0 0 0 0 54 0 101 305 325 285 567 938 689 440 347 334 386 278 432 547 752 742 719
0 0 0 0 0 0 0 0 0 0 0 3 8 0 2 0 0 0 0 0 0 0 0 0 51 110 58 202 250 255 287 574 617 476 371 242 303 209 478 466 660 746 604 581
0 0 0 0 0 0 0 0 0 0 0 0 1 0 0 0 0 0 0 0 0 0 0 0 82 183 208 252 305 320 458 616 479 392 344 459 556 588 399 297 457 653 572 632
0 0 0 0 0 0 0 0 0 0 0 0 0 0 0 0 0 0 0 1 0 0 0 0 273 311 308 321 348 462 573 533 358 433 400 429 216 160 270 370 124 565 440 436
0 0 0 0 0 0 0 0 0 0 0 0 0 0 0 0 0 0 0 0 0 0 0 2 254 342 340 314 362 533 543 420 491 387 333 449 207 50 144 119 366 600 742 717
0 0 0 0 0 0 0 0 0 0 0 0 0 0 0 0 0 0 0 4 0 0 0 63 270 362 290 294 420 467 469 419 448 335 451 505 287 290 226 348 493 770 904 821
0 0 0 0 0 0 0 0 0 0 0 0 0 0 0 0 0 0 0 0 0 0 74 231 328 274 302 331 380 411 371 511 435 466 346 325 399 403 373 460 556 675 778 701
0 0 0 0 0 0 0 0 0 0 0 0 0 0 0 0 0 0 0 0 0 94 166 283 271 319 284 357 322 274 467 427 421 322 263 268 288 219 412 539 696 603 700 516
15 0 0 0 0 0 0 0 0 0 0 0 0 13 0 0 0 0 0 0 0 140 293 312 306 284 306 294 275 389 369 354 277 208 210 195 227 403 480 496 814 724 595 440
24 30 0 0 0 0 0 0 0 0 0 0 4 14 21 0 0 0 0 0 0 156 329 294 312 308 267 292 296 366 306 272 165 149 144 143 327 301 225 590 615 645 455 167
18 54 29 0 0 0 0 0 0 0 0 0 1 31 5 0 0 0 0 0 0 228 304 306 300 298 300 315 334 285 115 118 140 142 88 131 183 147 207 400 415 544 440 74
86 38 18 33 22 0 0 0 0 0 0 0 7 19 0 0 0 2 4 4 6 303 280 301 265 288 318 328 307 74 76 84 95 66 44 47 160 81 293 198 434 471 375 79
48 23 0 86 23 4 0 0 0 0 2 4 11 16 0 0 4 2 69 105 368 258 256 235 242 269 305 325 118 36 11 18 38 13 5 54 134 349 234 243 317 449 366 64
11 3 0 29 63 1 0 0 0 0 7 16 0 0 0 0 28 58 172 330 286 266 232 232 239 248 288 210 25 0 0 0 3 0 11 52 289 302 232 253 274 275 266 231
4 0 0 0 0 13 7 1 0 4 3 10 1 0 0 46 56 36 180 227 238 208 227 236 213 233 286 116 0 0 0 0 0 0 6 77 381 332 224 165 202 281 334 139
3 2 3 0 0 0 5 2 3 2 3 2 0 0 0 0 0 7 97 197 217 248 237 246 194 243 264 70 0 0 0 0 0 1 3 94 120 160 207 190 241 252 277 182
10 13 49 6 0 0 0 2 4 3 9 1 0 0 0 0 0 0 76 224 225 281 240 249 219 261 254 42 0 0 0 0 0 2 34 96 88 157 194 265 209 58 181 196
4 3 35 1 0 7 8 4 0 1 0 0 0 0 0 0 0 9 85 230 212 290 289 300 259 319 279 21 0 0 0 0 0 2 29 177 107 115 132 204 344 234 9 32
0 1 0 6 1 86 44 82 17 9 1 1 4 0 0 0 0 0 47 140 210 341 368 391 327 393 322 11 0 0 0 0 0 0 15 150 52 177 153 246 324 441 187 114
0 4 6 14 22 0 19 46 44 59 42 5 0 0 5 13 0 15 25 97 285 235 514 492 397 440 377 12 0 0 0 0 0 0 0 60 49 27 89 79 390 577 351 299
0 9 4 30 39 78 3 22 33 3 2 0 0 0 0 0 0 0 0 6 48 386 503 613 490 492 459 14 0 0 0 0 0 0 0 0 8 24 102 51 353 282 278 193
1 1 4 4 58 45 0 66 74 5 8 3 1 0 0 0 0 0 0 0 3 259 465 687 619 566 533 15 0 0 0 0 0 0 0 0 17 7 94 105 449 408 199 58
9 31 80 92 34 12 2 2 0 1 3 11 10 3 1 0 8 16 27 132 133 149 486 641 701 666 604 48 0 0 0 0 0 0 0 0 91 2 16 85 445 374 365 31
4 8 41 73 0 8 7 1 3 6 7 4 8 2 1 1 22 143 199 283 389 219 596 663 746 756 689 176 0 0 0 0 0 0 0 0 92 0 0 0 211 272 125 3
2 3 6 5 2 1 7 8 2 0 3 0 1 0 0 0 8 128 309 456 414 440 400 647 754 808 782 338 4 0 0 0 0 0 0 0 2 43 6 0 5 47 104 2
14 6 5 1 13 10 3 1 1 0 0 0 0 0 0 0 0 71 335 616 692 451 300 594 697 808 820 490 56 0 0 0 0 0 0 0 0 6 161 4 0 0 0 0
CIN
0 0 0 0 0 0 0 0 0 0 0 -13 0 -5 -11 0 0 0 0 0 0 0 0 0 0 -154 -1 -257 -338 -396 -425 -383 -282 -288 -291 -270 -232 -211 -198 -138 -92 -34 -19 -6
0 0 0 0 0 0 0 0 0 0 0 -9 -5 -1 -8 0 0 0 0 0 0 0 0 0 -29 -194 -281 -356 -432 -457 -461 -407 -329 -302 -258 -240 -206 -183 -99 -62 -28 -9 -8 -12
0 0 0 0 0 0 0 0 0 0 0 0 -6 -2 0 0 0 0 0 0 0 0 0 0 -53 -193 -299 -398 -450 -464 -443 -372 -325 -260 -229 -183 -132 -80 -102 -83 -20 -16 -12 -3
0 0 0 0 0 0 0 0 0 0 0 0 -1 0 0 0 0 0 0 -2 0 0 0 0 -72 -219 -307 -370 -429 -429 -370 -331 -296 -223 -196 -160 -159 -117 -63 -25 -10 -3 -3 -3
0 0 0 0 0 0 0 0 0 0 0 0 0 0 0 0 0 0 -1 0 0 0 0 -8 -111 -212 -295 -386 -413 -365 -321 -293 -216 -212 -170 -127 -136 -169 -76 -33 -7 -1 -1 -1
0 0 0 0 0 0 0 0 0 0 0 0 0 0 0 0 0 0 0 -6 0 0 0 -70 -128 -245 -340 -380 -356 -333 -281 -238 -205 -189 -121 -87 -113 -59 -26 -5 -1 -1 0 0
0 0 0 0 0 0 0 0 0 0 0 0 0 0 0 0 0 0 0 0 0 0 -78 -108 -188 -275 -344 -343 -339 -302 -265 -185 -174 -122 -135 -114 -66 -22 -6 -1 -3 -1 -1 -1
0 0 0 0 0 0 0 0 0 0 0 0 0 0 0 0 0 0 0 0 0 -83 -80 -128 -211 -259 -283 -308 -322 -288 -205 -180 -152 -146 -136 -112 -64 -24 -3 -3 -2 -3 -1 -1
-10 0 0 0 0 0 0 0 0 0 0 0 0 -11 0 0 0 0 0 0 0 -87 -82 -145 -193 -237 -267 -305 -290 -228 -194 -178 -179 -166 -138 -113 -48 -1 -3 -1 0 0 -1 -2
-11 -5 0 0 0 0 0 0 0 0 0 0 -4 -8 -7 0 0 0 0 0 0 -89 -102 -149 -205 -233 -267 -269 -255 -204 -191 -187 -206 -175 -144 -100 -16 -2 -1 -3 -1 -1 -2 -1
-5 -3 -8 0 -4 0 0 0 0 0 0 0 -4 -9 -9 0 0 0 0 0 0 -107 -105 -161 -198 -237 -245 -243 -213 -201 -238 -235 -194 -172 -142 -70 -23 -2 -2 -4 -1 -1 -1 -3
-6 -3 -13 -15 -18 0 0 0 0 0 0 0 -16 -10 0 0 0 -55 -59 -124 -60 -88 -103 -147 -200 -194 -216 -209 -193 -263 -240 -218 -205 -194 -167 -106 -14 -10 -4 -3 -3 0 -1 -15
-7 -10 0 -29 -31 -5 0 0 0 0 -5 -7 -8 -17 0 0 -62 -70 -14 -41 -72 -93 -102 -153 -169 -174 -182 -170 -228 -300 -317 -285 -236 -253 -1 -66 -8 -1 -2 -2 -3 -1 -2 -11
-1 -1 -2 -5 -40 -9 -1 0 -2 -3 -7 -7 0 0 0 -7 -55 -46 -54 -64 -87 -101 -125 -140 -157 -153 -151 -178 -323 -1 0 0 -151 0 -59 -74 -6 -1 -3 -1 -2 -3 -3 -3
0 -1 0 0 0 -122 -14 -14 0 -10 -9 -7 -4 0 0 -5 -6 -15 -74 -64 -77 -81 -107 -123 -142 -135 -139 -216 -25 0 0 0 0 0 -1 -59 -9 -1 -4 -2 -1 -2 -1 -13
0 0 -33 -13 0 0 -16 -16 -17 -5 -6 -15 -5 0 0 0 0 -25 -36 -69 -67 -68 -77 -105 -124 -135 -145 -243 0 0 0 0 0 -330 -49 -36 -11 -2 -3 -1 -1 -4 -1 -2
-1 0 -4 -12 0 0 -12 -9 -14 -10 -10 -5 0 0 0 0 0 0 -24 -49 -54 -57 -67 -88 -121 -124 -138 -253 0 0 0 0 0 -374 -130 -46 -38 -1 -9 -2 -3 -20 -11 -3
-2 -1 -2 -6 0 -6 -6 -12 -5 -10 0 0 0 0 0 0 0 -10 -12 -45 -47 -37 -48 -82 -90 -104 -147 -273 0 0 0 0 0 -415 -178 -43 -44 -19 -4 -6 -1 -10 -36 -16
0 -4 0 -5 -3 -10 -28 -5 -8 -9 -10 -6 -3 0 0 0 0 0 -45 -27 -36 -33 -32 -59 -73 -104 -154 -265 0 0 0 0 0 0 -96 -79 -82 -26 -7 -4 -5 -1 -9 -7
0 -6 -1 -4 -7 0 -74 -48 -63 -41 -19 -125 0 0 -50 -40 0 -41 -154 -129 -50 -12 -24 -58 -70 -109 -151 -124 0 0 0 0 0 0 0 -157 -110 -99 -38 -16 -5 0 0 -1
0 -2 -2 -16 -4 -2 -22 -6 -78 -6 -2 -1 0 0 0 0 0 0 0 -191 -155 -40 -19 -52 -86 -120 -153 -129 0 0 0 0 0 0 0 0 -204 -147 -86 -78 -8 -6 -2 -7
-3 -1 -2 -47 -7 -30 0 -10 -8 -5 -1 -1 -1 0 0 0 0 0 0 0 -123 -102 -34 -55 -75 -112 -159 -125 0 0 0 0 0 0 0 0 -267 -237 -134 -100 -6 -3 -10 -24
-2 -10 -3 -3 -17 -1 -1 -1 -2 -1 -2 -1 -1 -2 -1 0 -177 -222 -233 -180 -163 -133 -56 -50 -82 -131 -165 -110 0 0 0 0 0 0 0 0 -237 -353 -276 -157 -17 -26 -6 -79
0 0 -1 -5 0 -2 -1 -1 -2 -1 -1 -2 -1 -1 -1 -1 -188 -166 -178 -163 -142 -137 -78 -58 -87 -100 -171 -208 0 0 0 0 0 0 0 0 -270 0 0 0 -102 -73 -102 -2
-1 -2 0 0 0 -1 -1 -1 -1 0 -2 0 -2 -1 0 0 -173 -168 -162 -170 -168 -133 -94 -71 -80 -96 -152 -202 -69 0 0 0 0 0 0 0 -179 -323 -87 0 -153 -202 -151 -33
0 -1 0 0 0 -1 -1 -2 -1 0 -1 0 0 0 0 0 0 -228 -164 -152 -176 -158 -111 -94 -82 -96 -115 -192 -222 0 0 0 0 0 0 0 0 -153 -250 -78 0 0 0 0
Wind_Speed
32 37 43 42 39 36 35 42 47 45 27 30 40 46 41 42 46 46 40 36 40 44 44 38 29 23 21 11 7 1 1 1 2 2 4 5 7 8 10 12 13 15 17 17
38 45 48 34 33 34 47 52 55 55 44 39 38 45 48 35 38 43 46 42 41 46 38 28 21 20 16 8 3 1 1 2 1 3 5 7 6 8 11 12 14 17 17 16
46 46 39 39 42 42 39 37 37 44 39 40 44 53 31 27 33 41 52 55 50 41 28 22 17 18 11 4 3 3 3 2 2 4 6 7 9 12 12 13 13 12 15 14
45 48 46 44 47 39 44 30 31 39 41 43 34 51 34 25 31 30 43 40 29 22 24 17 13 11 6 5 4 4 4 4 4 4 5 6 7 9 13 16 17 17 15 14
53 45 49 54 44 37 43 32 33 33 38 42 37 36 41 35 26 22 31 33 31 17 21 11 9 7 5 5 4 6 6 6 5 5 7 7 9 12 14 14 16 14 14 10
52 44 45 52 52 40 44 39 38 34 33 43 26 28 44 29 24 32 32 29 25 14 17 9 6 3 4 5 7 7 7 7 6 7 8 9 12 14 15 15 17 16 10 8
54 52 48 46 48 51 39 39 41 41 37 42 26 29 34 23 39 33 25 23 19 21 6 3 1 2 6 8 7 7 7 7 8 8 9 10 12 12 13 14 16 14 11 10
53 56 51 45 46 48 44 41 39 36 30 30 22 26 27 28 15 21 10 8 16 5 4 2 3 6 9 7 7 7 7 8 9 9 10 11 12 11 12 15 13 13 12 12
48 55 44 49 40 43 49 48 39 41 33 38 33 24 12 20 14 11 11 8 5 4 5 3 7 9 9 8 7 7 8 8 9 10 11 11 12 13 15 17 12 12 14 15
38 44 51 44 47 47 52 42 42 47 50 51 28 29 25 15 9 10 9 8 9 4 5 9 9 10 9 8 7 8 8 9 10 10 11 11 12 12 13 15 13 14 15 18
31 33 42 49 49 49 49 46 46 39 40 39 44 35 20 19 22 22 3 9 15 9 12 12 12 11 9 8 8 9 9 10 10 10 11 12 13 12 14 13 15 16 17 19
29 28 37 45 38 46 47 46 40 43 36 38 30 18 13 16 16 11 1 11 11 11 14 14 13 12 10 9 9 10 11 11 11 11 12 12 13 14 14 15 17 17 18 20
24 35 36 31 37 45 50 50 44 46 34 36 31 19 12 16 15 14 9 7 8 13 15 15 14 12 10 10 11 11 12 11 12 12 13 13 15 15 16 17 17 17 19 21
31 40 43 27 33 37 49 48 45 43 42 29 35 10 9 7 4 8 9 2 9 14 17 15 13 13 11 12 12 12 13 12 12 13 13 14 14 16 16 17 17 18 18 21
26 48 53 32 28 30 48 47 46 43 41 38 27 26 11 4 4 7 4 4 8 12 14 14 15 14 12 13 14 13 14 13 13 13 14 12 15 17 15 17 18 18 16 15
22 41 47 39 34 34 34 51 48 45 45 35 18 25 22 8 9 13 14 6 6 9 13 14 15 13 12 14 15 15 15 14 15 15 14 15 13 14 14 17 19 19 18 16
24 31 41 36 31 34 39 41 44 40 44 38 33 21 25 21 19 19 15 19 8 6 11 13 15 13 13 15 17 17 15 16 17 18 17 19 21 20 19 19 19 20 20 20
27 29 35 33 27 32 33 35 34 41 36 39 34 30 26 22 16 17 11 19 12 5 6 11 14 12 14 17 18 18 16 17 20 21 19 21 22 21 21 20 20 20 22 21
29 29 34 34 33 19 21 20 33 37 32 29 32 35 26 28 23 15 15 15 21 14 5 8 13 11 15 19 19 19 18 19 22 22 21 21 22 22 22 22 22 21 21 21
27 29 29 33 30 33 22 18 20 22 29 19 21 23 22 20 20 17 18 17 14 22 9 4 10 10 17 20 21 21 20 20 23 24 23 22 22 22 22 21 22 22 22 22
28 29 32 33 28 20 16 19 21 35 25 19 21 22 24 28 28 22 22 21 20 19 8 4 8 12 19 21 21 22 20 21 23 24 24 23 23 22 22 22 22 23 23 23
24 25 28 30 30 25 19 17 24 20 16 16 18 20 24 28 30 27 25 25 23 23 16 5 7 9 17 21 22 22 22 21 23 24 23 22 22 23 22 23 23 24 24 25
22 21 24 23 24 16 12 9 11 14 16 15 17 18 22 25 27 26 26 26 25 24 23 7 6 9 18 20 22 23 22 21 21 23 22 22 23 24 23 24 24 24 24 24
18 19 21 23 22 22 11 13 14 16 17 18 18 19 20 22 24 24 25 25 25 25 25 10 8 9 19 20 21 24 22 22 21 22 22 23 25 26 26 25 25 25 24 24
16 17 20 18 17 18 18 19 20 19 19 19 19 18 20 21 21 22 24 24 25 25 25 16 9 7 17 18 20 24 23 23 23 23 24 24 26 27 26 26 26 25 23 22
15 17 18 24 24 24 26 26 25 23 22 21 21 20 20 20 21 22 22 23 24 26 27 20 10 8 15 17 18 21 22 23 21 22 24 25 25 26 26 27 26 16 16 19
Wind_Direction
246 245 245 227 229 236 238 269 272 273 272 274 279 280 284 285 282 282 286 288 293 295 302 309 311 309 310 319 317 293 236 279 274 269 273 289 300 316 321 327 330 331 331 331
244 242 223 248 248 251 262 264 266 268 276 278 281 282 282 284 286 286 285 287 290 295 300 310 312 309 316 325 344 32 47 338 273 303 300 316 325 329 333 336 336 335 333 334
244 239 254 248 252 256 256 257 266 272 280 280 280 279 264 262 284 287 281 277 283 293 298 304 303 308 329 350 5 16 28 58 31 341 338 343 345 341 340 337 340 343 345 343
254 253 251 249 250 246 256 250 266 274 275 276 280 283 248 279 289 290 286 286 291 296 299 293 296 312 337 358 4 26 55 75 23 30 13 358 355 352 349 346 346 349 352 351
253 250 246 249 239 245 230 262 264 269 274 278 275 283 247 294 290 293 288 287 292 287 294 286 289 310 355 358 45 61 67 59 38 34 16 17 356 356 353 355 352 356 357 5
256 256 251 247 251 251 256 257 262 267 271 272 245 277 248 245 252 291 285 289 294 283 280 285 294 335 12 75 80 68 65 46 45 37 27 15 3 357 357 360 358 3 20 38
253 252 253 248 246 247 245 245 251 258 257 233 280 279 244 251 289 287 283 284 296 280 253 248 288 93 110 103 83 71 58 48 56 48 33 17 13 13 9 9 11 23 40 58
249 247 243 240 243 235 236 233 242 236 263 271 267 250 243 298 269 228 240 293 288 276 246 207 125 115 117 100 86 74 54 60 65 55 34 22 24 28 29 18 31 44 57 73
253 248 246 238 243 238 230 235 225 256 265 272 281 292 282 300 297 292 279 249 229 254 229 176 124 122 114 100 87 65 64 65 71 60 45 38 30 21 20 17 55 71 76 94
259 254 239 240 237 242 236 234 236 243 250 249 276 284 296 320 307 280 278 165 169 171 180 137 125 123 111 96 78 66 71 64 74 62 51 47 33 42 37 39 84 94 104 120
264 255 245 233 228 231 226 230 230 241 247 256 258 272 294 289 275 279 256 149 150 152 142 133 125 122 109 93 78 79 76 76 70 65 58 43 44 86 54 94 110 105 112 137
255 256 246 232 237 229 227 228 225 234 238 249 272 271 315 288 271 277 266 120 134 137 137 133 127 122 110 99 89 86 87 82 74 71 69 53 91 107 111 126 95 109 117 138
255 240 238 234 234 223 227 224 229 230 243 241 251 262 303 279 267 253 265 111 128 133 133 130 126 121 113 106 97 94 93 84 80 76 74 59 142 143 137 120 112 111 130 138
252 234 227 229 235 222 221 220 224 223 231 234 238 276 278 273 249 269 261 220 129 132 130 126 123 120 115 108 104 97 98 86 77 79 80 71 47 103 86 85 90 101 111 158
252 225 212 237 242 245 220 221 220 221 225 232 234 244 260 252 296 276 268 156 138 130 129 125 125 120 115 110 107 102 102 88 84 78 76 39 70 111 50 67 80 81 76 90
256 223 221 229 239 239 222 218 218 222 219 229 230 228 227 278 270 260 246 220 166 138 130 125 125 119 116 114 114 110 104 93 94 86 72 74 45 57 53 70 81 93 87 83
253 228 214 221 229 234 219 213 215 218 219 225 230 235 241 253 261 249 254 235 214 154 132 127 127 122 116 117 117 116 106 104 101 105 88 100 111 111 102 103 84 100 108 110
241 234 217 219 231 219 218 221 222 219 223 227 233 237 246 246 252 242 269 236 230 207 139 126 126 120 118 119 119 116 109 110 116 118 106 116 127 109 119 108 102 83 101 102
233 230 216 211 220 214 219 219 218 220 221 232 236 233 239 238 244 261 270 260 234 242 231 122 123 119 121 124 123 121 117 117 127 129 119 120 122 105 121 115 119 106 113 110
223 225 221 218 220 214 233 240 237 228 217 244 241 241 246 252 239 251 262 261 256 233 239 129 119 119 125 128 128 127 124 125 133 135 134 128 126 124 121 124 113 116 111 101
221 223 219 225 222 228 250 263 235 218 231 251 248 250 246 239 243 252 258 250 252 252 222 161 125 124 131 133 131 133 129 132 137 137 133 131 127 123 122 134 113 121 114 112
227 227 226 221 222 233 272 251 224 232 252 261 260 257 249 245 243 252 249 244 245 245 239 186 139 123 131 136 138 137 136 133 137 134 132 127 120 130 119 135 129 117 118 120
233 242 233 236 220 246 268 249 255 257 254 269 265 261 252 244 243 249 246 244 244 243 237 217 166 131 134 139 144 143 138 135 133 135 131 128 128 138 124 139 131 128 138 133
246 253 242 244 254 253 268 264 269 265 259 267 270 267 256 248 249 249 245 246 244 241 235 225 166 147 139 141 144 150 140 139 136 136 134 134 139 144 145 147 152 143 149 146
263 262 256 245 277 252 266 268 266 271 266 271 275 274 264 256 255 253 249 247 245 242 238 237 185 173 145 142 143 149 146 145 142 142 142 141 148 152 150 159 161 162 169 165
291 277 268 252 271 266 260 264 261 261 264 270 272 273 271 264 259 259 255 254 250 245 239 242 219 183 154 150 146 147 148 150 142 143 148 150 150 154 153 156 153 227 209 204